[[{"header":{"parameterUnit":"m.s-1","parameterCategory":1,"la1":30.2991,"la2":30.254,"lo1":-89.0895,"lo2":-89.0444,"dy":0.0017,"dx":0.0017,"nx":28,"ny":28,"refTime":"2023-04-01T21:00:00:Z","depth":0,"parameterNumber":2,"parameterNumberName":"U-component_of_WINDS"},"data":[0,0,0,0,0,0,0,0,0,0,0,0,0,0,0,0,0,0,0,0,0,0,0,0,0,0,0,0,0,0,0,0,0,0,0,0,0,0,0,0,0,0,0,0,0,0,0,0,0,0,0,0,0,0,0,0,0,0,2.7255,2.7254,0,2.7212,2.7212,2.7211,2.7205,2.7205,2.7205,2.7206,2.7162,2.716,2.7159,0,0,0,0,0,0,0,0,0,0,0,0,0,2.7332,2.733,2.7255,2.7254,2.7254,2.7212,2.7212,2.7211,2.7205,2.7205,2.7206,2.7206,2.7162,2.716,2.7158,0,0,0,0,0,0,0,0,0,0,0,0,0,2.7295,2.733,2.7255,2.7246,2.7244,2.7213,2.7212,2.7211,2.7205,2.7205,2.7206,2.7206,2.7163,2.716,2.7158,2.7133,0,0,2.7151,2.715,0,0,0,0,0,0,0,0,2.7297,2.7292,2.7247,2.7246,2.7245,2.7214,2.7223,2.7185,2.7204,2.722,2.7206,2.7206,2.7179,2.7175,2.7166,2.7131,2.7129,2.7151,2.715,2.7149,2.7148,0,0,0,0,0,0,0,2.7299,2.7294,2.7238,2.7247,2.7245,2.7244,2.7239,2.7216,2.7196,2.7218,2.7218,2.7213,2.7178,2.7168,2.7165,2.7128,2.7151,2.7149,2.7148,2.7147,2.7072,2.7072,0,0,0,0,0,0,2.7304,2.7296,2.7239,2.7237,2.7273,2.7242,2.7237,2.7224,2.7197,2.7193,2.7212,2.7213,2.7172,2.7167,2.7163,2.7133,2.7149,2.7146,2.7145,2.7073,2.7072,2.7072,0,0,0,0,0,0,2.7305,2.7299,2.7241,2.7266,2.7259,2.724,2.7225,2.7222,2.7212,2.7192,2.7189,2.7206,2.7172,2.7166,2.7141,2.7131,2.7145,2.7143,2.7074,2.7073,2.7072,2.7071,0,0,0,0,0,0,2.7308,2.7299,2.7289,2.7266,2.7257,2.7219,2.7225,2.7221,2.7209,2.7209,2.7185,2.7182,2.7172,2.7144,2.7139,2.7128,2.7141,2.7074,2.7073,2.7072,2.7071,2.707,2.7068,0,0,0,0,0,2.731,2.7289,2.7288,2.7281,2.7244,2.7218,2.7213,2.7203,2.7208,2.7197,2.7185,2.7182,2.7133,2.7142,2.7135,2.7124,2.7075,2.7074,2.7072,2.7072,2.707,2.7068,0,0,0,0,0,0,2.731,2.7286,2.7284,2.7255,2.7239,2.7217,2.7203,2.7201,2.7182,2.7183,2.7171,2.7166,2.7141,2.713,2.714,2.7099,2.7105,2.7102,2.7107,2.7105,2.7103,2.7106,2.714,0,0,0,0,0,2.7307,2.7288,2.7268,2.7244,2.7236,2.7222,2.721,2.7204,2.7186,2.7179,2.7165,2.7148,2.7129,2.7116,2.7098,2.7071,2.7066,2.706,2.7058,2.7057,2.7055,2.7041,2.7038,2.7067,2.7067,2.7067,0,0,2.7299,2.7284,2.7272,2.7244,2.723,2.7212,2.7216,2.7195,2.7181,2.7176,2.7151,2.714,2.7121,2.7095,2.7083,2.7085,2.7046,2.7056,2.7055,2.7053,2.704,2.7037,2.7034,2.7066,2.7067,2.7067,0,0,2.7275,2.7262,2.7241,2.7229,2.7209,2.72,2.7196,2.7175,2.7168,2.7143,2.714,2.7124,2.7091,2.7078,2.7067,2.7043,2.704,2.7037,2.7029,2.7016,2.7014,2.7011,2.7003,2.7001,2.7035,2.7035,2.7035,0,2.7268,2.724,2.7231,2.7212,2.72,2.7196,2.7176,2.7164,2.7139,2.7132,2.7135,2.7096,2.7082,2.7054,2.7048,2.704,2.7035,2.7039,2.7015,2.7012,2.701,2.7003,2.7,2.7035,2.7035,2.7035,2.7035,0,2.7232,2.7213,2.7199,2.7177,2.7164,2.7144,2.7133,2.7121,2.7118,2.7109,2.7085,2.7069,2.7048,2.7042,2.7037,2.7013,2.7016,2.7017,2.7022,2.7008,2.7,2.6997,2.7035,2.7035,2.7035,2.7035,0,0,2.7204,2.718,2.7175,2.7165,2.7146,2.7131,2.7112,2.7092,2.7083,2.7067,2.7051,2.7026,2.7028,2.7016,2.701,2.6999,2.6982,2.7002,2.7001,2.6999,2.6957,2.6955,2.6952,2.6981,2.6981,2.698,2.6958,0,2.7178,2.7144,2.7138,2.7108,2.7091,2.709,2.7074,2.706,2.7052,2.7037,2.7029,2.7011,2.7015,2.7008,2.6997,2.6986,2.6974,2.6988,2.6967,2.6966,2.697,2.6948,2.6945,2.6925,2.6955,2.6955,2.6954,0,2.7142,2.7127,2.7096,2.7081,2.7074,2.7059,2.7042,2.7028,2.7014,2.7009,2.6997,2.6994,2.6976,2.6984,2.6959,2.6969,2.696,2.6954,2.6954,2.695,2.6958,2.6943,2.6918,2.6915,2.695,2.695,2.695,0,2.7124,2.7096,2.7075,2.7067,2.7049,2.7039,2.7031,2.7018,2.7008,2.6993,2.6987,2.697,2.6961,2.6949,2.6942,2.6948,2.6918,2.6924,2.6913,2.6914,2.6905,2.6906,2.6878,2.6902,2.6902,2.6902,2.6902,0,2.7095,2.7076,2.7067,2.7054,2.7034,2.7028,2.7008,2.7001,2.6989,2.6975,2.6973,2.696,2.6952,2.6938,2.6932,2.6913,2.6909,2.6905,2.6904,2.6905,2.6905,2.6897,2.6898,2.6901,2.6901,2.6901,2.6901,0,2.7071,2.7064,2.7041,2.7027,2.7023,2.7009,2.6997,2.6985,2.6979,2.6961,2.6957,2.6946,2.693,2.6923,2.6902,2.6899,2.6877,2.6877,2.6882,2.6881,2.687,2.6871,2.6836,2.6831,2.6858,2.6858,2.6858,0,2.7052,2.7038,2.7023,2.7014,2.7007,2.6992,2.6982,2.6977,2.6967,2.6951,2.6941,2.6925,2.6912,2.6886,2.6877,2.6863,2.6862,2.6851,2.6859,2.6861,2.6861,2.6862,2.6861,2.6848,2.6848,2.6848,2.6848,0,2.7019,2.7017,2.7003,2.6989,2.6978,2.6966,2.6955,2.6948,2.6941,2.693,2.6914,2.6904,2.6885,2.6869,2.6854,2.6847,2.6846,2.6846,2.6842,2.6842,2.6845,2.6843,2.6877,2.6846,2.6846,2.6846,2.6846,2.6846,2.6996,2.6985,2.6974,2.6959,2.6951,2.6941,2.6929,2.6923,2.691,2.6894,2.6892,2.6875,2.6864,2.6844,2.6837,2.6824,2.6827,2.6821,2.682,2.6819,2.6818,2.6849,2.6821,2.6821,2.6822,2.6822,2.6822,0,2.6964,2.6957,2.6944,2.6929,2.6919,2.6921,2.691,2.69,2.6885,2.6876,2.6864,2.6846,2.6832,2.6824,2.681,2.6801,2.6801,2.6798,2.6798,2.6796,2.6816,2.6821,2.6799,2.6799,2.6799,2.6799,2.6799,2.6799,2.6945,2.6926,2.6924,2.6901,2.6895,2.6879,2.6872,2.6864,2.6856,2.6838,2.6826,2.6821,2.6813,2.6799,2.6786,2.6784,2.6779,2.6776,2.6774,2.6792,2.6795,2.6797,2.6801,2.6775,2.6775,2.6754,2.6754,2.6754]},{"header":{"parameterUnit":"m.s-1","parameterCategory":1,"la1":30.2991,"la2":30.254,"lo1":-89.0895,"lo2":-89.0444,"dy":0.0017,"dx":0.0017,"nx":28,"ny":28,"refTime":"2023-04-01T21:00:00:Z","depth":0,"parameterNumber":3,"parameterNumberName":"V-component_of_WINDS"},"data":[0,0,0,0,0,0,0,0,0,0,0,0,0,0,0,0,0,0,0,0,0,0,0,0,0,0,0,0,0,0,0,0,0,0,0,0,0,0,0,0,0,0,0,0,0,0,0,0,0,0,0,0,0,0,0,0,0,0,2.188,2.1882,0,2.2087,2.209,2.2092,2.2153,2.2152,2.2151,2.215,2.2363,2.2369,2.2376,0,0,0,0,0,0,0,0,0,0,0,0,0,2.1534,2.154,2.188,2.1882,2.1885,2.2087,2.209,2.2093,2.2153,2.2152,2.2151,2.2149,2.2361,2.2368,2.2376,0,0,0,0,0,0,0,0,0,0,0,0,0,2.1707,2.1542,2.1879,2.194,2.1947,2.2087,2.209,2.2094,2.2154,2.2152,2.215,2.2149,2.2358,2.2368,2.2378,2.2472,0,0,2.2408,2.2412,0,0,0,0,0,0,0,0,2.1697,2.172,2.1928,2.1936,2.1944,2.2093,2.2046,2.222,2.2154,2.2075,2.215,2.2148,2.2274,2.2291,2.2334,2.2482,2.2491,2.2409,2.2415,2.2419,2.2422,0,0,0,0,0,0,0,2.1685,2.1711,2.1962,2.1931,2.1941,2.1956,2.1978,2.208,2.2181,2.2082,2.2087,2.2111,2.2278,2.2324,2.2339,2.2494,2.2409,2.2418,2.2424,2.2428,2.2728,2.273,0,0,0,0,0,0,2.1663,2.1701,2.1955,2.1968,2.1814,2.1963,2.1989,2.2047,2.218,2.2199,2.2112,2.2113,2.2307,2.2327,2.2347,2.2465,2.2419,2.2429,2.2434,2.2726,2.2729,2.2731,0,0,0,0,0,0,2.1656,2.1685,2.1947,2.1836,2.187,2.1971,2.2036,2.2052,2.2097,2.2203,2.2221,2.214,2.2307,2.2333,2.244,2.2473,2.2433,2.2442,2.2724,2.2727,2.273,2.2702,0,0,0,0,0,0,2.1645,2.1682,2.172,2.1836,2.1876,2.2037,2.2038,2.2057,2.2114,2.2117,2.2234,2.2252,2.2308,2.2425,2.245,2.2486,2.245,2.2721,2.2725,2.2729,2.2701,2.2704,2.2707,0,0,0,0,0,2.1633,2.1704,2.1721,2.1752,2.1925,2.2039,2.2062,2.2125,2.2117,2.2155,2.2222,2.2248,2.2465,2.2435,2.2464,2.2504,2.272,2.2724,2.2728,2.2699,2.2703,2.2707,0,0,0,0,0,0,2.159,2.1721,2.1741,2.1853,2.1934,2.2049,2.2099,2.2127,2.2213,2.2212,2.2286,2.2312,2.2414,2.247,2.2434,2.2601,2.2593,2.2603,2.2561,2.2566,2.2568,2.2553,2.2459,0,0,0,0,0,2.1593,2.1675,2.1785,2.1872,2.1912,2.1998,2.205,2.2091,2.2179,2.2214,2.229,2.2373,2.246,2.2516,2.2602,2.2709,2.2734,2.275,2.2753,2.2755,2.2763,2.2822,2.2829,2.2745,2.2745,2.2745,0,0,2.1601,2.1683,2.173,2.1866,2.1934,2.2016,2.2027,2.2114,2.2176,2.2227,2.2333,2.2391,2.2489,2.2595,2.2646,2.2645,2.2792,2.2761,2.2761,2.2769,2.2827,2.2835,2.2842,2.2748,2.2748,2.2747,0,0,2.1657,2.1728,2.1808,2.1875,2.1977,2.2034,2.2053,2.2163,2.2204,2.2311,2.235,2.2424,2.2573,2.2641,2.2694,2.2773,2.2799,2.2799,2.2815,2.2871,2.2878,2.2884,2.2911,2.292,2.2807,2.2807,2.2807,0,2.1655,2.178,2.1845,2.193,2.1988,2.2037,2.2118,2.218,2.2305,2.2343,2.234,2.2526,2.2596,2.2718,2.2737,2.278,2.2803,2.2786,2.2871,2.2878,2.2885,2.2912,2.2922,2.2806,2.2806,2.2806,2.2806,0,2.1771,2.1857,2.1909,2.2028,2.2091,2.2174,2.225,2.2307,2.2341,2.2398,2.2505,2.259,2.2693,2.2725,2.276,2.2852,2.2847,2.2857,2.285,2.2891,2.2917,2.2928,2.2805,2.2805,2.2805,2.2806,0,0,2.1807,2.1959,2.1977,2.203,2.2146,2.2214,2.2297,2.2397,2.2443,2.2528,2.2599,2.2722,2.2731,2.2792,2.2835,2.2884,2.2939,2.2888,2.2891,2.2893,2.3043,2.3035,2.3045,2.2957,2.2959,2.2961,2.3034,0,2.1877,2.2028,2.2088,2.2211,2.229,2.2337,2.241,2.2488,2.2542,2.2617,2.2677,2.2763,2.2769,2.2805,2.2856,2.2922,2.297,2.2917,2.3023,2.3026,2.2996,2.3059,2.3052,2.3117,2.3045,2.3047,2.3048,0,2.198,2.2063,2.2193,2.2297,2.2333,2.2397,2.2492,2.2564,2.2653,2.2689,2.2755,2.2795,2.2883,2.287,2.2992,2.2954,2.3001,2.3039,2.3043,2.3055,2.3039,2.3072,2.314,2.3149,2.3065,2.3064,2.3063,0,2.1991,2.2137,2.2233,2.2277,2.2401,2.2445,2.2498,2.2585,2.2641,2.2724,2.2761,2.2854,2.2904,2.2974,2.3037,2.3022,2.3152,2.3145,2.3184,2.3182,2.3209,2.3207,2.3284,2.324,2.324,2.3239,2.3239,0,2.2063,2.214,2.2239,2.2299,2.2386,2.2453,2.2538,2.2595,2.2671,2.2742,2.2788,2.2853,2.2933,2.3007,2.3057,2.3149,2.3172,2.3203,2.3215,2.3198,2.3194,2.323,2.3227,2.3242,2.3241,2.3241,2.324,0,2.2091,2.216,2.2268,2.2376,2.2404,2.2464,2.2556,2.2615,2.267,2.2758,2.2783,2.287,2.296,2.303,2.3148,2.3181,2.3278,2.3292,2.3248,2.3254,2.3288,2.3283,2.3391,2.3408,2.3352,2.3352,2.3353,0,2.2132,2.2192,2.2306,2.2356,2.2409,2.2489,2.2546,2.2614,2.2671,2.2775,2.2821,2.2914,2.2992,2.3133,2.3207,2.3296,2.3312,2.3343,2.3326,2.3307,2.3312,2.3307,2.3313,2.3345,2.3346,2.3346,2.3346,0,2.2196,2.2227,2.2307,2.2398,2.2464,2.254,2.2616,2.2655,2.2736,2.2798,2.289,2.295,2.3069,2.3161,2.3258,2.3312,2.3342,2.3351,2.3364,2.3348,2.332,2.3334,2.3253,2.3348,2.3348,2.3348,2.3348,2.3348,2.2231,2.2286,2.2374,2.2461,2.2525,2.2595,2.2655,2.2717,2.2796,2.2898,2.2933,2.3028,2.3113,2.3246,2.3301,2.3375,2.3377,2.3397,2.3402,2.3405,2.3403,2.3308,2.3393,2.3393,2.3393,2.3393,2.3393,0,2.2297,2.2355,2.2435,2.2539,2.2607,2.263,2.2715,2.277,2.2853,2.293,2.3005,2.311,2.3199,2.3278,2.337,2.3414,2.343,2.3436,2.3433,2.3445,2.3397,2.3376,2.3421,2.3421,2.3421,2.3421,2.3421,2.3421,2.2339,2.2433,2.2474,2.26,2.2658,2.2751,2.2797,2.2861,2.2923,2.3038,2.3112,2.3163,2.3241,2.3338,2.342,2.3441,2.3472,2.3474,2.3499,2.3452,2.3449,2.3445,2.3425,2.3481,2.3481,2.3541,2.3541,2.3542]}]]